Year,Month,Day,Hour,Minute,Value (Times are PST for temperature in C)
2018,06,15,00,00,9.00
2018,06,15,00,01,9.00
2018,06,15,00,02,9.00
2018,06,15,00,03,9.00
2018,06,15,00,04,8.90
2018,06,15,00,05,8.90
2018,06,15,00,06,8.90
2018,06,15,00,07,8.90
2018,06,15,00,08,8.90
2018,06,15,00,09,8.90
2018,06,15,00,10,8.90
2018,06,15,00,11,8.80
2018,06,15,00,12,8.80
2018,06,15,00,13,8.80
2018,06,15,00,14,8.80
2018,06,15,00,15,8.80
2018,06,15,00,16,8.80
2018,06,15,00,17,8.80
2018,06,15,00,18,8.80
2018,06,15,00,19,8.80
2018,06,15,00,20,8.80
2018,06,15,00,21,8.70
2018,06,15,00,22,8.70
2018,06,15,00,23,8.70
2018,06,15,00,24,8.70
2018,06,15,00,25,8.70
2018,06,15,00,26,8.70
2018,06,15,00,27,8.70
2018,06,15,00,28,8.70
2018,06,15,00,29,8.70
2018,06,15,00,30,8.70
2018,06,15,00,31,8.70
2018,06,15,00,32,8.70
2018,06,15,00,33,8.70
2018,06,15,00,34,8.70
2018,06,15,00,35,8.60
2018,06,15,00,36,8.60
2018,06,15,00,37,8.60
2018,06,15,00,38,8.60
2018,06,15,00,39,8.60
2018,06,15,00,40,8.50
2018,06,15,00,41,8.50
2018,06,15,00,42,8.50
2018,06,15,00,43,8.50
2018,06,15,00,44,8.40
2018,06,15,00,45,8.40
2018,06,15,00,46,8.40
2018,06,15,00,47,8.40
2018,06,15,00,48,8.40
2018,06,15,00,49,8.40
2018,06,15,00,50,8.40
2018,06,15,00,51,8.40
2018,06,15,00,52,8.40
2018,06,15,00,53,8.40
2018,06,15,00,54,8.40
2018,06,15,00,55,8.40
2018,06,15,00,56,8.40
2018,06,15,00,57,8.40
2018,06,15,00,58,8.40
2018,06,15,00,59,8.40
2018,06,15,01,00,8.40
2018,06,15,01,01,8.40
2018,06,15,01,02,8.40
2018,06,15,01,03,8.40
2018,06,15,01,04,8.30
2018,06,15,01,05,8.30
2018,06,15,01,06,8.30
2018,06,15,01,07,8.30
2018,06,15,01,08,8.30
2018,06,15,01,09,8.30
2018,06,15,01,10,8.30
2018,06,15,01,11,8.30
2018,06,15,01,12,8.30
2018,06,15,01,13,8.30
2018,06,15,01,14,8.30
2018,06,15,01,15,8.30
2018,06,15,01,16,8.20
2018,06,15,01,17,8.30
2018,06,15,01,18,8.20
2018,06,15,01,19,8.20
2018,06,15,01,20,8.20
2018,06,15,01,21,8.20
2018,06,15,01,22,8.20
2018,06,15,01,23,8.20
2018,06,15,01,24,8.20
2018,06,15,01,25,8.20
2018,06,15,01,26,8.20
2018,06,15,01,27,8.20
2018,06,15,01,28,8.20
2018,06,15,01,29,8.20
2018,06,15,01,30,8.20
2018,06,15,01,31,8.20
2018,06,15,01,32,8.20
2018,06,15,01,33,8.20
2018,06,15,01,34,8.20
2018,06,15,01,35,8.20
2018,06,15,01,36,8.20
2018,06,15,01,37,8.20
2018,06,15,01,38,8.20
2018,06,15,01,39,8.20
2018,06,15,01,40,8.20
2018,06,15,01,41,8.20
2018,06,15,01,42,8.20
2018,06,15,01,43,8.20
2018,06,15,01,44,8.20
2018,06,15,01,45,8.30
2018,06,15,01,46,8.30
2018,06,15,01,47,8.30
2018,06,15,01,48,8.30
2018,06,15,01,49,8.30
2018,06,15,01,50,8.30
2018,06,15,01,51,8.30
2018,06,15,01,52,8.30
2018,06,15,01,53,8.30
2018,06,15,01,54,8.30
2018,06,15,01,55,8.30
2018,06,15,01,56,8.30
2018,06,15,01,57,8.30
2018,06,15,01,58,8.30
2018,06,15,01,59,8.30
2018,06,15,02,00,8.30
2018,06,15,02,01,8.30
2018,06,15,02,02,8.30
2018,06,15,02,03,8.30
2018,06,15,02,04,8.30
2018,06,15,02,05,8.40
2018,06,15,02,06,8.40
2018,06,15,02,07,8.40
2018,06,15,02,08,8.40
2018,06,15,02,09,8.40
2018,06,15,02,10,8.40
2018,06,15,02,11,8.40
2018,06,15,02,12,8.30
2018,06,15,02,13,8.40
2018,06,15,02,14,8.40
2018,06,15,02,15,8.30
2018,06,15,02,16,8.30
2018,06,15,02,17,8.30
2018,06,15,02,18,8.30
2018,06,15,02,19,8.30
2018,06,15,02,20,8.30
2018,06,15,02,21,8.30
2018,06,15,02,22,8.30
2018,06,15,02,23,8.30
2018,06,15,02,24,8.30
2018,06,15,02,25,8.30
2018,06,15,02,26,8.30
2018,06,15,02,27,8.30
2018,06,15,02,28,8.30
2018,06,15,02,29,8.30
2018,06,15,02,30,8.40
2018,06,15,02,31,8.40
2018,06,15,02,32,8.40
2018,06,15,02,33,8.40
2018,06,15,02,34,8.40
2018,06,15,02,35,8.40
2018,06,15,02,36,8.40
2018,06,15,02,37,8.50
2018,06,15,02,38,8.50
2018,06,15,02,39,8.60
2018,06,15,02,40,8.60
2018,06,15,02,41,8.60
2018,06,15,02,42,8.60
2018,06,15,02,43,8.60
2018,06,15,02,44,8.60
2018,06,15,02,45,8.60
2018,06,15,02,46,8.60
2018,06,15,02,47,8.60
2018,06,15,02,48,8.70
2018,06,15,02,49,8.70
2018,06,15,02,50,8.70
2018,06,15,02,51,8.70
2018,06,15,02,52,8.70
2018,06,15,02,53,8.70
2018,06,15,02,54,8.70
2018,06,15,02,55,8.70
2018,06,15,02,56,8.80
2018,06,15,02,57,8.80
2018,06,15,02,58,8.80
2018,06,15,02,59,8.80
2018,06,15,03,00,8.80
2018,06,15,03,01,8.80
2018,06,15,03,02,8.80
2018,06,15,03,03,8.90
2018,06,15,03,04,8.90
2018,06,15,03,05,8.90
2018,06,15,03,06,8.90
2018,06,15,03,07,8.90
2018,06,15,03,08,9.00
2018,06,15,03,09,9.00
2018,06,15,03,10,9.00
2018,06,15,03,11,9.00
2018,06,15,03,12,9.00
2018,06,15,03,13,9.10
2018,06,15,03,14,9.10
2018,06,15,03,15,9.10
2018,06,15,03,16,9.10
2018,06,15,03,17,9.10
2018,06,15,03,18,9.20
2018,06,15,03,19,9.20
2018,06,15,03,20,9.20
2018,06,15,03,21,9.20
2018,06,15,03,22,9.20
2018,06,15,03,23,9.20
2018,06,15,03,24,9.20
2018,06,15,03,25,9.30
2018,06,15,03,26,9.30
2018,06,15,03,27,9.30
2018,06,15,03,28,9.30
2018,06,15,03,29,9.40
2018,06,15,03,30,9.40
2018,06,15,03,31,9.40
2018,06,15,03,32,9.40
2018,06,15,03,33,9.50
2018,06,15,03,34,9.50
2018,06,15,03,35,9.60
2018,06,15,03,36,9.60
2018,06,15,03,37,9.60
2018,06,15,03,38,9.60
2018,06,15,03,39,9.60
2018,06,15,03,40,9.70
2018,06,15,03,41,9.70
2018,06,15,03,42,9.70
2018,06,15,03,43,9.70
2018,06,15,03,44,9.80
2018,06,15,03,45,9.80
2018,06,15,03,46,9.80
2018,06,15,03,47,9.80
2018,06,15,03,48,9.80
2018,06,15,03,49,9.90
2018,06,15,03,50,9.90
2018,06,15,03,51,9.90
2018,06,15,03,52,9.90
2018,06,15,03,53,9.90
2018,06,15,03,54,9.90
2018,06,15,03,55,9.90
2018,06,15,03,56,10.00
2018,06,15,03,57,10.00
2018,06,15,03,58,10.00
2018,06,15,03,59,10.00
2018,06,15,04,00,10.10
2018,06,15,04,01,10.10
2018,06,15,04,02,10.10
2018,06,15,04,03,10.10
2018,06,15,04,04,10.10
2018,06,15,04,05,10.10
2018,06,15,04,06,10.10
2018,06,15,04,07,10.10
2018,06,15,04,08,10.20
2018,06,15,04,09,10.20
2018,06,15,04,10,10.20
2018,06,15,04,11,10.20
2018,06,15,04,12,10.20
2018,06,15,04,13,10.20
2018,06,15,04,14,10.30
2018,06,15,04,15,10.30
2018,06,15,04,16,10.30
2018,06,15,04,17,10.30
2018,06,15,04,18,10.30
2018,06,15,04,19,10.30
2018,06,15,04,20,10.30
2018,06,15,04,21,10.30
2018,06,15,04,22,10.30
2018,06,15,04,23,10.40
2018,06,15,04,24,10.40
2018,06,15,04,25,10.40
2018,06,15,04,26,10.40
2018,06,15,04,27,10.40
2018,06,15,04,28,10.40
2018,06,15,04,29,10.40
2018,06,15,04,30,10.40
2018,06,15,04,31,10.50
2018,06,15,04,32,10.50
2018,06,15,04,33,10.50
2018,06,15,04,34,10.50
2018,06,15,04,35,10.50
2018,06,15,04,36,10.60
2018,06,15,04,37,10.60
2018,06,15,04,38,10.60
2018,06,15,04,39,10.60
2018,06,15,04,40,10.60
2018,06,15,04,41,10.60
2018,06,15,04,42,10.60
2018,06,15,04,43,10.60
2018,06,15,04,44,10.60
2018,06,15,04,45,10.70
2018,06,15,04,46,10.70
2018,06,15,04,47,10.70
2018,06,15,04,48,10.70
2018,06,15,04,49,10.70
2018,06,15,04,50,10.70
2018,06,15,04,51,10.70
2018,06,15,04,52,10.70
2018,06,15,04,53,10.70
2018,06,15,04,54,10.70
2018,06,15,04,55,10.70
2018,06,15,04,56,10.70
2018,06,15,04,57,10.70
2018,06,15,04,58,10.70
2018,06,15,04,59,10.70
2018,06,15,05,00,10.80
2018,06,15,05,01,10.80
2018,06,15,05,02,10.80
2018,06,15,05,03,10.80
2018,06,15,05,04,10.80
2018,06,15,05,05,10.80
2018,06,15,05,06,10.80
2018,06,15,05,07,10.80
2018,06,15,05,08,10.80
2018,06,15,05,09,10.80
2018,06,15,05,10,10.80
2018,06,15,05,11,10.80
2018,06,15,05,12,10.80
2018,06,15,05,13,10.80
2018,06,15,05,14,10.80
2018,06,15,05,15,10.80
2018,06,15,05,16,10.80
2018,06,15,05,17,10.80
2018,06,15,05,18,10.80
2018,06,15,05,19,10.80
2018,06,15,05,20,10.80
2018,06,15,05,21,10.80
2018,06,15,05,22,10.80
2018,06,15,05,23,10.80
2018,06,15,05,24,10.80
2018,06,15,05,25,10.90
2018,06,15,05,26,10.90
2018,06,15,05,27,10.90
2018,06,15,05,28,10.90
2018,06,15,05,29,10.90
2018,06,15,05,30,10.90
2018,06,15,05,31,10.90
2018,06,15,05,32,10.90
2018,06,15,05,33,10.90
2018,06,15,05,34,10.90
2018,06,15,05,35,10.90
2018,06,15,05,36,10.90
2018,06,15,05,37,10.90
2018,06,15,05,38,10.90
2018,06,15,05,39,10.90
2018,06,15,05,40,10.90
2018,06,15,05,41,10.90
2018,06,15,05,42,10.90
2018,06,15,05,43,10.90
2018,06,15,05,44,10.90
2018,06,15,05,45,10.90
2018,06,15,05,46,10.80
2018,06,15,05,47,10.80
2018,06,15,05,48,10.80
2018,06,15,05,49,10.80
2018,06,15,05,50,10.80
2018,06,15,05,51,10.80
2018,06,15,05,52,10.80
2018,06,15,05,53,10.80
2018,06,15,05,54,10.80
2018,06,15,05,55,10.80
2018,06,15,05,56,10.80
2018,06,15,05,57,10.80
2018,06,15,05,58,10.80
2018,06,15,05,59,10.80
2018,06,15,06,00,10.80
2018,06,15,06,01,10.90
2018,06,15,06,02,10.90
2018,06,15,06,03,10.90
2018,06,15,06,04,10.90
2018,06,15,06,05,10.90
2018,06,15,06,06,10.90
2018,06,15,06,07,10.90
2018,06,15,06,08,11.00
2018,06,15,06,09,11.00
2018,06,15,06,10,11.00
2018,06,15,06,11,11.10
2018,06,15,06,12,11.10
2018,06,15,06,13,11.10
2018,06,15,06,14,11.20
2018,06,15,06,15,11.20
2018,06,15,06,16,11.20
2018,06,15,06,17,11.20
2018,06,15,06,18,11.30
2018,06,15,06,19,11.30
2018,06,15,06,20,11.30
2018,06,15,06,21,11.30
2018,06,15,06,22,11.30
2018,06,15,06,23,11.30
2018,06,15,06,24,11.40
2018,06,15,06,25,11.40
2018,06,15,06,26,11.40
2018,06,15,06,27,11.40
2018,06,15,06,28,11.40
2018,06,15,06,29,11.40
2018,06,15,06,30,11.50
2018,06,15,06,31,11.50
2018,06,15,06,32,11.50
2018,06,15,06,33,11.50
2018,06,15,06,34,11.50
2018,06,15,06,35,11.50
2018,06,15,06,36,11.50
2018,06,15,06,37,11.60
2018,06,15,06,38,11.60
2018,06,15,06,39,11.60
2018,06,15,06,40,11.60
2018,06,15,06,41,11.60
2018,06,15,06,42,11.60
2018,06,15,06,43,11.60
2018,06,15,06,44,11.60
2018,06,15,06,45,11.60
2018,06,15,06,46,11.60
2018,06,15,06,47,11.60
2018,06,15,06,48,11.70
2018,06,15,06,49,11.70
2018,06,15,06,50,11.70
2018,06,15,06,51,11.70
2018,06,15,06,52,11.70
2018,06,15,06,53,11.70
2018,06,15,06,54,11.80
2018,06,15,06,55,11.80
2018,06,15,06,56,11.80
2018,06,15,06,57,11.90
2018,06,15,06,58,11.90
2018,06,15,06,59,12.00
2018,06,15,07,00,12.00
2018,06,15,07,01,12.10
2018,06,15,07,02,12.10
2018,06,15,07,03,12.20
2018,06,15,07,04,12.20
2018,06,15,07,05,12.20
2018,06,15,07,06,12.30
2018,06,15,07,07,12.30
2018,06,15,07,08,12.40
2018,06,15,07,09,12.40
2018,06,15,07,10,12.40
2018,06,15,07,11,12.50
2018,06,15,07,12,12.50
2018,06,15,07,13,12.60
2018,06,15,07,14,12.60
2018,06,15,07,15,12.60
2018,06,15,07,16,12.70
2018,06,15,07,17,12.70
2018,06,15,07,18,12.70
2018,06,15,07,19,12.70
2018,06,15,07,20,12.70
2018,06,15,07,21,12.80
2018,06,15,07,22,12.80
2018,06,15,07,23,12.80
2018,06,15,07,24,12.80
2018,06,15,07,25,12.80
2018,06,15,07,26,12.80
2018,06,15,07,27,12.80
2018,06,15,07,28,12.80
2018,06,15,07,29,12.90
2018,06,15,07,30,12.90
2018,06,15,07,31,12.90
2018,06,15,07,32,12.90
2018,06,15,07,33,12.90
2018,06,15,07,34,13.00
2018,06,15,07,35,13.00
2018,06,15,07,36,13.00
2018,06,15,07,37,13.10
2018,06,15,07,38,13.10
2018,06,15,07,39,13.10
2018,06,15,07,40,13.10
2018,06,15,07,41,13.10
2018,06,15,07,42,13.10
2018,06,15,07,43,13.20
2018,06,15,07,44,13.20
2018,06,15,07,45,13.20
2018,06,15,07,46,13.20
2018,06,15,07,47,13.20
2018,06,15,07,48,13.20
2018,06,15,07,49,13.20
2018,06,15,07,50,13.20
2018,06,15,07,51,13.20
2018,06,15,07,52,13.20
2018,06,15,07,53,13.30
2018,06,15,07,54,13.30
2018,06,15,07,55,13.40
2018,06,15,07,56,13.40
2018,06,15,07,57,13.40
2018,06,15,07,58,13.50
2018,06,15,07,59,13.60
2018,06,15,08,00,13.70
2018,06,15,08,01,13.80
2018,06,15,08,02,13.80
2018,06,15,08,03,13.90
2018,06,15,08,04,14.00
2018,06,15,08,05,14.00
2018,06,15,08,06,14.10
2018,06,15,08,07,14.10
2018,06,15,08,08,14.20
2018,06,15,08,09,14.20
2018,06,15,08,10,14.20
2018,06,15,08,11,14.30
2018,06,15,08,12,14.30
2018,06,15,08,13,14.30
2018,06,15,08,14,14.30
2018,06,15,08,15,14.40
2018,06,15,08,16,14.40
2018,06,15,08,17,14.40
2018,06,15,08,18,14.50
2018,06,15,08,19,14.50
2018,06,15,08,20,14.60
2018,06,15,08,21,14.60
2018,06,15,08,22,14.70
2018,06,15,08,23,14.70
2018,06,15,08,24,14.70
2018,06,15,08,25,14.70
2018,06,15,08,26,14.80
2018,06,15,08,27,14.80
2018,06,15,08,28,14.80
2018,06,15,08,29,14.80
2018,06,15,08,30,14.80
2018,06,15,08,31,14.90
2018,06,15,08,32,14.90
2018,06,15,08,33,14.90
2018,06,15,08,34,14.90
2018,06,15,08,35,15.00
2018,06,15,08,36,15.00
2018,06,15,08,37,15.00
2018,06,15,08,38,15.00
2018,06,15,08,39,15.00
2018,06,15,08,40,15.10
2018,06,15,08,41,15.10
2018,06,15,08,42,15.10
2018,06,15,08,43,15.10
2018,06,15,08,44,15.10
2018,06,15,08,45,15.20
2018,06,15,08,46,15.20
2018,06,15,08,47,15.20
2018,06,15,08,48,15.20
2018,06,15,08,49,15.20
2018,06,15,08,50,15.20
2018,06,15,08,51,15.30
2018,06,15,08,52,15.30
2018,06,15,08,53,15.30
2018,06,15,08,54,15.40
2018,06,15,08,55,15.40
2018,06,15,08,56,15.40
2018,06,15,08,57,15.40
2018,06,15,08,58,15.40
2018,06,15,08,59,15.40
2018,06,15,09,00,15.40
2018,06,15,09,01,15.40
2018,06,15,09,02,15.40
2018,06,15,09,03,15.40
2018,06,15,09,04,15.40
2018,06,15,09,05,15.40
2018,06,15,09,06,15.40
2018,06,15,09,07,15.40
2018,06,15,09,08,15.40
2018,06,15,09,09,15.40
2018,06,15,09,10,15.40
2018,06,15,09,11,15.40
2018,06,15,09,12,15.40
2018,06,15,09,13,15.40
2018,06,15,09,14,15.40
2018,06,15,09,15,15.50
2018,06,15,09,16,15.50
2018,06,15,09,17,15.50
2018,06,15,09,18,15.60
2018,06,15,09,19,15.60
2018,06,15,09,20,15.60
2018,06,15,09,21,15.60
2018,06,15,09,22,15.60
2018,06,15,09,23,15.70
2018,06,15,09,24,15.70
2018,06,15,09,25,15.70
2018,06,15,09,26,15.70
2018,06,15,09,27,15.80
2018,06,15,09,28,15.90
2018,06,15,09,29,16.00
2018,06,15,09,30,16.10
2018,06,15,09,31,16.30
2018,06,15,09,32,16.40
2018,06,15,09,33,16.50
2018,06,15,09,34,16.70
2018,06,15,09,35,16.80
2018,06,15,09,36,16.80
2018,06,15,09,37,16.90
2018,06,15,09,38,17.00
2018,06,15,09,39,17.10
2018,06,15,09,40,17.20
2018,06,15,09,41,17.30
2018,06,15,09,42,17.50
2018,06,15,09,43,17.60
2018,06,15,09,44,17.80
2018,06,15,09,45,17.90
2018,06,15,09,46,17.90
2018,06,15,09,47,18.00
2018,06,15,09,48,17.90
2018,06,15,09,49,17.90
2018,06,15,09,50,17.90
2018,06,15,09,51,17.80
2018,06,15,09,52,17.70
2018,06,15,09,53,17.70
2018,06,15,09,54,17.60
2018,06,15,09,55,17.50
2018,06,15,09,56,17.40
2018,06,15,09,57,17.40
2018,06,15,09,58,17.30
2018,06,15,09,59,17.30
2018,06,15,10,00,17.20
2018,06,15,10,01,17.20
2018,06,15,10,02,17.20
2018,06,15,10,03,17.20
2018,06,15,10,04,17.10
2018,06,15,10,05,17.10
2018,06,15,10,06,17.10
2018,06,15,10,07,17.10
2018,06,15,10,08,17.00
2018,06,15,10,09,17.00
2018,06,15,10,10,17.00
2018,06,15,10,11,17.00
2018,06,15,10,12,16.90
2018,06,15,10,13,16.90
2018,06,15,10,14,16.90
2018,06,15,10,15,16.90
2018,06,15,10,16,16.90
2018,06,15,10,17,16.90
2018,06,15,10,18,16.90
2018,06,15,10,19,16.90
2018,06,15,10,20,16.90
2018,06,15,10,21,16.90
2018,06,15,10,22,16.80
2018,06,15,10,23,16.80
2018,06,15,10,24,16.80
2018,06,15,10,25,16.80
2018,06,15,10,26,16.80
2018,06,15,10,27,16.80
2018,06,15,10,28,16.80
2018,06,15,10,29,16.70
2018,06,15,10,30,16.70
2018,06,15,10,31,16.60
2018,06,15,10,32,16.60
2018,06,15,10,33,16.60
2018,06,15,10,34,16.60
2018,06,15,10,35,16.60
2018,06,15,10,36,16.60
2018,06,15,10,37,16.60
2018,06,15,10,38,16.60
2018,06,15,10,39,16.70
2018,06,15,10,40,16.70
2018,06,15,10,41,16.90
2018,06,15,10,42,17.00
2018,06,15,10,43,17.10
2018,06,15,10,44,17.30
2018,06,15,10,45,17.40
2018,06,15,10,46,17.50
2018,06,15,10,47,17.60
2018,06,15,10,48,17.70
2018,06,15,10,49,17.80
2018,06,15,10,50,17.90
2018,06,15,10,51,18.00
2018,06,15,10,52,18.10
2018,06,15,10,53,18.10
2018,06,15,10,54,18.20
2018,06,15,10,55,18.20
2018,06,15,10,56,18.30
2018,06,15,10,57,18.30
2018,06,15,10,58,18.40
2018,06,15,10,59,18.40
2018,06,15,11,00,18.40
2018,06,15,11,01,18.40
2018,06,15,11,02,18.40
2018,06,15,11,03,18.40
2018,06,15,11,04,18.30
2018,06,15,11,05,18.30
2018,06,15,11,06,18.20
2018,06,15,11,07,18.20
2018,06,15,11,08,18.20
2018,06,15,11,09,18.20
2018,06,15,11,10,18.20
2018,06,15,11,11,18.20
2018,06,15,11,12,18.20
2018,06,15,11,13,18.20
2018,06,15,11,14,18.20
2018,06,15,11,15,18.20
2018,06,15,11,16,18.20
2018,06,15,11,17,18.20
2018,06,15,11,18,18.30
2018,06,15,11,19,18.30
2018,06,15,11,20,18.40
2018,06,15,11,21,18.40
2018,06,15,11,22,18.50
2018,06,15,11,23,18.50
2018,06,15,11,24,18.60
2018,06,15,11,25,18.50
2018,06,15,11,26,18.60
2018,06,15,11,27,18.60
2018,06,15,11,28,18.60
2018,06,15,11,29,18.60
2018,06,15,11,30,18.60
2018,06,15,11,31,18.60
2018,06,15,11,32,18.60
2018,06,15,11,33,18.70
2018,06,15,11,34,18.70
2018,06,15,11,35,18.70
2018,06,15,11,36,18.70
2018,06,15,11,37,18.70
2018,06,15,11,38,18.80
2018,06,15,11,39,18.80
2018,06,15,11,40,18.80
2018,06,15,11,41,18.80
2018,06,15,11,42,18.80
2018,06,15,11,43,18.80
2018,06,15,11,44,18.80
2018,06,15,11,45,18.90
2018,06,15,11,46,18.90
2018,06,15,11,47,19.00
2018,06,15,11,48,19.00
2018,06,15,11,49,19.10
2018,06,15,11,50,19.10
2018,06,15,11,51,19.10
2018,06,15,11,52,19.10
2018,06,15,11,53,19.10
2018,06,15,11,54,19.10
2018,06,15,11,55,19.10
2018,06,15,11,56,19.10
2018,06,15,11,57,19.10
2018,06,15,11,58,19.00
2018,06,15,11,59,19.00
2018,06,15,12,00,19.00
2018,06,15,12,01,18.90
2018,06,15,12,02,18.90
2018,06,15,12,03,18.80
2018,06,15,12,04,18.80
2018,06,15,12,05,18.70
2018,06,15,12,06,18.70
2018,06,15,12,07,18.70
2018,06,15,12,08,18.70
2018,06,15,12,09,18.80
2018,06,15,12,10,18.80
2018,06,15,12,11,18.80
2018,06,15,12,12,18.80
2018,06,15,12,13,18.80
2018,06,15,12,14,18.80
2018,06,15,12,15,18.80
2018,06,15,12,16,18.90
2018,06,15,12,17,18.90
2018,06,15,12,18,18.90
2018,06,15,12,19,19.00
2018,06,15,12,20,18.90
2018,06,15,12,21,18.90
2018,06,15,12,22,18.90
2018,06,15,12,23,18.90
2018,06,15,12,24,19.00
2018,06,15,12,25,19.10
2018,06,15,12,26,19.10
2018,06,15,12,27,19.20
2018,06,15,12,28,19.30
2018,06,15,12,29,19.30
2018,06,15,12,30,19.30
2018,06,15,12,31,19.20
2018,06,15,12,32,19.20
2018,06,15,12,33,19.20
2018,06,15,12,34,19.20
2018,06,15,12,35,19.10
2018,06,15,12,36,19.10
2018,06,15,12,37,19.10
2018,06,15,12,38,19.10
2018,06,15,12,39,19.20
2018,06,15,12,40,19.30
2018,06,15,12,41,19.30
2018,06,15,12,42,19.30
2018,06,15,12,43,19.30
2018,06,15,12,44,19.30
2018,06,15,12,45,19.40
2018,06,15,12,46,19.50
2018,06,15,12,47,19.50
2018,06,15,12,48,19.50
2018,06,15,12,49,19.60
2018,06,15,12,50,19.50
2018,06,15,12,51,19.50
2018,06,15,12,52,19.50
2018,06,15,12,53,19.40
2018,06,15,12,54,19.40
2018,06,15,12,55,19.40
2018,06,15,12,56,19.40
2018,06,15,12,57,19.40
2018,06,15,12,58,19.40
2018,06,15,12,59,19.30
2018,06,15,13,00,19.30
2018,06,15,13,01,19.30
2018,06,15,13,02,19.30
2018,06,15,13,03,19.40
2018,06,15,13,04,19.50
2018,06,15,13,05,19.50
2018,06,15,13,06,19.50
2018,06,15,13,07,19.60
2018,06,15,13,08,19.60
2018,06,15,13,09,19.70
2018,06,15,13,10,19.70
2018,06,15,13,11,19.70
2018,06,15,13,12,19.70
2018,06,15,13,13,19.60
2018,06,15,13,14,19.60
2018,06,15,13,15,19.60
2018,06,15,13,16,19.50
2018,06,15,13,17,19.50
2018,06,15,13,18,19.50
2018,06,15,13,19,19.50
2018,06,15,13,20,19.50
2018,06,15,13,21,19.60
2018,06,15,13,22,19.60
2018,06,15,13,23,19.60
2018,06,15,13,24,19.70
2018,06,15,13,25,19.70
2018,06,15,13,26,19.70
2018,06,15,13,27,19.70
2018,06,15,13,28,19.70
2018,06,15,13,29,19.70
2018,06,15,13,30,19.70
2018,06,15,13,31,19.70
2018,06,15,13,32,19.70
2018,06,15,13,33,19.70
2018,06,15,13,34,19.70
2018,06,15,13,35,19.70
2018,06,15,13,36,19.70
2018,06,15,13,37,19.70
2018,06,15,13,38,19.70
2018,06,15,13,39,19.70
2018,06,15,13,40,19.70
2018,06,15,13,41,19.80
2018,06,15,13,42,19.90
2018,06,15,13,43,19.90
2018,06,15,13,44,19.90
2018,06,15,13,45,19.90
2018,06,15,13,46,20.00
2018,06,15,13,47,20.00
2018,06,15,13,48,20.10
2018,06,15,13,49,20.10
2018,06,15,13,50,20.10
2018,06,15,13,51,20.10
2018,06,15,13,52,20.10
2018,06,15,13,53,20.10
2018,06,15,13,54,20.10
2018,06,15,13,55,20.10
2018,06,15,13,56,20.10
2018,06,15,13,57,20.00
2018,06,15,13,58,20.00
2018,06,15,13,59,19.90
2018,06,15,14,00,19.80
2018,06,15,14,01,19.80
2018,06,15,14,02,19.80
2018,06,15,14,03,19.70
2018,06,15,14,04,19.80
2018,06,15,14,05,19.80
2018,06,15,14,06,19.80
2018,06,15,14,07,19.80
2018,06,15,14,08,19.70
2018,06,15,14,09,19.70
2018,06,15,14,10,19.70
2018,06,15,14,11,19.60
2018,06,15,14,12,19.60
2018,06,15,14,13,19.60
2018,06,15,14,14,19.60
2018,06,15,14,15,19.70
2018,06,15,14,16,19.70
2018,06,15,14,17,19.70
2018,06,15,14,18,19.70
2018,06,15,14,19,19.80
2018,06,15,14,20,19.80
2018,06,15,14,21,19.80
2018,06,15,14,22,19.80
2018,06,15,14,23,19.90
2018,06,15,14,24,20.00
2018,06,15,14,25,20.00
2018,06,15,14,26,20.00
2018,06,15,14,27,20.10
2018,06,15,14,28,20.10
2018,06,15,14,29,20.20
2018,06,15,14,30,20.20
2018,06,15,14,31,20.20
2018,06,15,14,32,20.20
2018,06,15,14,33,20.20
2018,06,15,14,34,20.20
2018,06,15,14,35,20.20
2018,06,15,14,36,20.10
2018,06,15,14,37,20.00
2018,06,15,14,38,20.00
2018,06,15,14,39,20.10
2018,06,15,14,40,20.10
2018,06,15,14,41,20.10
2018,06,15,14,42,20.10
2018,06,15,14,43,20.20
2018,06,15,14,44,20.20
2018,06,15,14,45,20.30
2018,06,15,14,46,20.30
2018,06,15,14,47,20.30
2018,06,15,14,48,20.40
2018,06,15,14,49,20.50
2018,06,15,14,50,20.60
2018,06,15,14,51,20.70
2018,06,15,14,52,20.80
2018,06,15,14,53,20.90
2018,06,15,14,54,20.90
2018,06,15,14,55,21.00
2018,06,15,14,56,21.00
2018,06,15,14,57,20.90
2018,06,15,14,58,20.90
2018,06,15,14,59,20.80
2018,06,15,15,00,20.80
2018,06,15,15,01,20.80
2018,06,15,15,02,20.80
2018,06,15,15,03,20.70
2018,06,15,15,04,20.70
2018,06,15,15,05,20.70
2018,06,15,15,06,20.70
2018,06,15,15,07,20.70
2018,06,15,15,08,20.70
2018,06,15,15,09,20.70
2018,06,15,15,10,20.70
2018,06,15,15,11,20.70
2018,06,15,15,12,20.70
2018,06,15,15,13,20.80
2018,06,15,15,14,20.80
2018,06,15,15,15,20.90
2018,06,15,15,16,21.00
2018,06,15,15,17,21.00
2018,06,15,15,18,21.10
2018,06,15,15,19,21.20
2018,06,15,15,20,21.30
2018,06,15,15,21,21.30
2018,06,15,15,22,21.30
2018,06,15,15,23,21.30
2018,06,15,15,24,21.30
2018,06,15,15,25,21.30
2018,06,15,15,26,21.20
2018,06,15,15,27,21.10
2018,06,15,15,28,21.10
2018,06,15,15,29,21.10
2018,06,15,15,30,21.10
2018,06,15,15,31,21.10
2018,06,15,15,32,21.10
2018,06,15,15,33,21.10
2018,06,15,15,34,21.10
2018,06,15,15,35,21.00
2018,06,15,15,36,21.00
2018,06,15,15,37,21.00
2018,06,15,15,38,21.00
2018,06,15,15,39,21.00
2018,06,15,15,40,21.00
2018,06,15,15,41,21.00
2018,06,15,15,42,21.10
2018,06,15,15,43,21.10
2018,06,15,15,44,21.20
2018,06,15,15,45,21.20
2018,06,15,15,46,21.20
2018,06,15,15,47,21.20
2018,06,15,15,48,21.10
2018,06,15,15,49,21.10
2018,06,15,15,50,21.10
2018,06,15,15,51,21.10
2018,06,15,15,52,21.00
2018,06,15,15,53,21.00
2018,06,15,15,54,21.00
2018,06,15,15,55,21.00
2018,06,15,15,56,21.00
2018,06,15,15,57,20.90
2018,06,15,15,58,20.90
2018,06,15,15,59,20.80
2018,06,15,16,00,20.80
2018,06,15,16,01,20.80
2018,06,15,16,02,20.90
2018,06,15,16,03,20.90
2018,06,15,16,04,20.90
2018,06,15,16,05,20.90
2018,06,15,16,06,20.90
2018,06,15,16,07,20.90
2018,06,15,16,08,21.00
2018,06,15,16,09,21.00
2018,06,15,16,10,21.00
2018,06,15,16,11,21.00
2018,06,15,16,12,21.10
2018,06,15,16,13,21.10
2018,06,15,16,14,21.00
2018,06,15,16,15,21.00
2018,06,15,16,16,21.00
2018,06,15,16,17,21.00
2018,06,15,16,18,20.90
2018,06,15,16,19,21.00
2018,06,15,16,20,21.00
2018,06,15,16,21,21.10
2018,06,15,16,22,21.10
2018,06,15,16,23,21.10
2018,06,15,16,24,21.20
2018,06,15,16,25,21.20
2018,06,15,16,26,21.30
2018,06,15,16,27,21.30
2018,06,15,16,28,21.30
2018,06,15,16,29,21.20
2018,06,15,16,30,21.20
2018,06,15,16,31,21.20
2018,06,15,16,32,21.20
2018,06,15,16,33,21.20
2018,06,15,16,34,21.20
2018,06,15,16,35,21.20
2018,06,15,16,36,21.20
2018,06,15,16,37,21.20
2018,06,15,16,38,21.20
2018,06,15,16,39,21.20
2018,06,15,16,40,21.20
2018,06,15,16,41,21.20
2018,06,15,16,42,21.20
2018,06,15,16,43,21.20
2018,06,15,16,44,21.20
2018,06,15,16,45,21.20
2018,06,15,16,46,21.30
2018,06,15,16,47,21.30
2018,06,15,16,48,21.30
2018,06,15,16,49,21.30
2018,06,15,16,50,21.30
2018,06,15,16,51,21.30
2018,06,15,16,52,21.30
2018,06,15,16,53,21.30
2018,06,15,16,54,21.40
2018,06,15,16,55,21.50
2018,06,15,16,56,21.50
2018,06,15,16,57,21.50
2018,06,15,16,58,21.50
2018,06,15,16,59,21.50
2018,06,15,17,00,21.40
2018,06,15,17,01,21.40
2018,06,15,17,02,21.30
2018,06,15,17,03,21.30
2018,06,15,17,04,21.30
2018,06,15,17,05,21.40
2018,06,15,17,06,21.40
2018,06,15,17,07,21.40
2018,06,15,17,08,21.40
2018,06,15,17,09,21.40
2018,06,15,17,10,21.40
2018,06,15,17,11,21.30
2018,06,15,17,12,21.20
2018,06,15,17,13,21.10
2018,06,15,17,14,21.00
2018,06,15,17,15,20.90
2018,06,15,17,16,20.80
2018,06,15,17,17,20.70
2018,06,15,17,18,20.60
2018,06,15,17,19,20.50
2018,06,15,17,20,20.40
2018,06,15,17,21,20.30
2018,06,15,17,22,20.20
2018,06,15,17,23,20.10
2018,06,15,17,24,20.00
2018,06,15,17,25,19.90
2018,06,15,17,26,19.80
2018,06,15,17,27,19.80
2018,06,15,17,28,19.70
2018,06,15,17,29,19.70